GW3762 Weather Reports


Display with metric or nautical units.
time (UTC)temp
F
wind
direction
speed
MPH
gust
MPH
rain 1hr
in
rain 24hr
in
rain mn
in
humidity
%
barometer
mb
20240527053456 63 61 2.0 4.0 0.00 0.00 0.00 94 1015.0
20240527053000 63 305 1.0 4.0 0.00 0.00 0.00 94 1015.0
20240527052500 63 31 3.0 4.0 0.00 0.00 0.00 94 1015.1
20240527052001 63 62 2.0 2.0 0.00 0.00 0.00 94 1015.3
20240527051519 63 71 0.0 3.0 0.00 0.00 0.00 94 1015.3
20240527045957 63 186 0.0 3.0 0.00 0.00 0.00 94 1015.4
20240527045459 63 186 1.0 3.0 0.00 0.00 0.00 94 1015.5
20240527045003 63 120 0.0 1.0 0.00 0.00 0.00 94 1015.5
20240527044503 63 120 0.0 1.0 0.00 0.00 0.00 94 1015.4
20240527043458 64 120 0.0 1.0 0.00 0.00 0.00 94 1015.5
20240527043007 64 120 0.0 1.0 0.00 0.00 0.00 94 1015.4
20240527042529 64 119 0.0 1.0 0.00 0.00 0.00 94 1015.4
20240527042000 64 74 0.0 2.0 0.00 0.00 0.00 93 1015.4
20240527041502 64 74 0.0 2.0 0.00 0.00 0.00 93 1015.2
20240527040458 64 76 0.0 2.0 0.00 0.00 0.00 94 1015.2
20240527035457 64 71 0.0 4.0 0.00 0.00 0.00 93 1015.0
20240527034957 64 59 4.0 4.0 0.00 0.00 0.00 93 1015.1
20240527034000 65 69 0.0 1.0 0.00 0.00 0.00 93 1015.1
20240527033507 65 69 0.0 1.0 0.00 0.00 0.00 93 1015.0
20240527033005 65 69 0.0 2.0 0.00 0.00 0.00 93 1015.0
20240527032501 65 69 0.0 1.0 0.00 0.00 0.00 93 1015.0
20240527031957 65 69 0.0 1.0 0.00 0.00 0.00 93 1014.9
20240527031457 65 69 0.0 2.0 0.00 0.00 0.00 93 1015.0
20240527030957 65 69 0.0 2.0 0.00 0.00 0.00 93 1014.9
20240527030518 65 69 0.0 2.0 0.00 0.00 0.00 93 1014.9
20240527030013 65 69 0.0 0.0 0.00 0.00 0.00 93 1014.8
20240527025458 65 310 0.0 0.0 0.00 0.00 0.00 93 1014.9
20240527025041 65 67 0.0 0.0 0.00 0.00 0.00 93 1014.9
20240527024009 65 64 0.0 0.0 0.00 0.00 0.00 93 1014.8
20240527023508 65 18 0.0 0.0 0.00 0.00 0.00 93 1014.9
20240527023001 65 242 0.0 0.0 0.00 0.00 0.00 93 1014.9
20240527022502 65 242 0.0 0.0 0.00 0.00 0.00 93 1015.0
20240527022000 65 114 0.0 0.0 0.00 0.00 0.00 93 1015.1
20240527021457 66 114 0.0 0.0 0.00 0.00 0.00 93 1015.2
20240527021004 66 114 0.0 0.0 0.00 0.00 0.00 92 1015.3
20240527020516 66 111 0.0 0.0 0.00 0.00 0.00 92 1015.4
20240527020021 66 111 0.0 0.0 0.00 0.00 0.00 92 1015.3
20240527015524 66 107 0.0 0.0 0.00 0.00 0.00 92 1015.2
20240527014457 66 107 0.0 0.0 0.00 0.00 0.00 92 1015.4
20240527014002 66 107 0.0 0.0 0.00 0.00 0.00 92 1015.4
20240527013508 66 107 0.0 0.0 0.00 0.00 0.00 92 1015.3
20240527013019 66 128 0.0 0.0 0.00 0.00 0.00 92 1015.4
20240527012456 66 128 0.0 0.0 0.00 0.00 0.00 92 1015.4
20240527012007 66 128 0.0 2.0 0.00 0.00 0.00 92 1015.3
20240527011525 66 128 0.0 2.0 0.00 0.00 0.00 91 1015.3
20240527011000 66 347 0.0 1.0 0.00 0.00 0.00 91 1015.3
20240527010509 66 347 1.0 1.0 0.00 0.00 0.00 91 1015.3
20240527010004 66 347 1.0 1.0 0.00 0.00 0.00 91 1015.3
20240527005457 66 347 0.0 1.0 0.00 0.00 0.00 91 1015.3
20240527004504 67 347 0.0 2.0 0.00 0.00 0.00 90 1015.2
20240527004001 67 347 1.0 2.0 0.00 0.00 0.00 90 1015.2
20240527003511 67 207 0.0 1.0 0.00 0.00 0.00 90 1015.2
20240527003033 68 207 0.0 0.0 0.00 0.00 0.00 89 1015.2
20240527002511 68 208 0.0 1.0 0.00 0.00 0.00 89 1015.2
20240527000959 69 230 0.0 2.0 0.00 0.00 0.00 88 1014.9
20240527000504 69 229 0.0 1.0 0.00 0.00 0.00 88 1014.9
20240527000004 69 229 0.0 1.0 0.00 0.00 0.00 88 1014.9
20240526235511 69 229 0.0 1.0 0.00 0.00 0.00 88 1014.9
20240526234957 69 230 0.0 2.0 0.00 0.00 0.00 88 1014.9
20240526234459 69 230 0.0 2.0 0.00 0.00 0.00 88 1014.7
20240526233958 70 230 0.0 0.0 0.00 0.00 0.00 87 1014.7
20240526233501 70 229 0.0 1.0 0.00 0.00 0.00 87 1014.6
20240526232958 70 229 0.0 1.0 0.00 0.00 0.00 87 1014.5
20240526232457 70 229 0.0 2.0 0.00 0.00 0.00 87 1014.4
20240526231503 70 230 1.0 3.0 0.00 0.00 0.00 87 1014.3
20240526231005 70 210 0.0 3.0 0.00 0.00 0.00 87 1014.3
20240526230510 71 196 0.0 2.0 0.00 0.00 0.00 86 1014.4
20240526230007 71 196 0.0 2.0 0.00 0.00 0.00 86 1014.4
20240526225503 71 196 0.0 2.0 0.00 0.00 0.00 86 1014.4
20240526225008 71 188 1.0 4.0 0.00 0.00 0.00 85 1014.3
20240526224508 72 212 0.0 2.0 0.00 0.00 0.00 85 1014.3
20240526224004 72 217 0.0 2.0 0.00 0.00 0.00 85 1014.3
20240526223503 72 217 0.0 1.0 0.00 0.00 0.00 85 1014.3
20240526223000 72 217 0.0 3.0 0.00 0.00 0.00 85 1014.2
20240526222458 72 219 0.0 3.0 0.00 0.00 0.00 84 1014.2
20240526222008 72 30 0.0 3.0 0.00 0.00 0.00 84 1014.2
20240526221503 72 195 0.0 2.0 0.00 0.00 0.00 84 1014.0
20240526220500 73 219 1.0 4.0 0.00 0.00 0.00 83 1014.1
20240526215529 73 208 1.0 4.0 0.00 0.00 0.00 82 1013.9
20240526215004 73 191 0.0 4.0 0.00 0.00 0.00 82 1013.9
20240526214511 73 199 0.0 3.0 0.00 0.00 0.00 82 1013.9
20240526214000 73 180 1.0 3.0 0.00 0.00 0.00 82 1013.9
20240526213511 73 258 0.0 3.0 0.00 0.00 0.00 82 1013.9
20240526213000 73 5 1.0 2.0 0.00 0.00 0.00 82 1014.0
20240526212457 74 10 1.0 3.0 0.00 0.00 0.00 81 1014.0
20240526211956 74 194 0.0 3.0 0.00 0.00 0.00 81 1014.0
20240526211503 74 198 0.0 3.0 0.00 0.00 0.00 80 1013.9
20240526211002 74 188 1.0 3.0 0.00 0.00 0.00 78 1013.9
20240526210458 74 155 0.0 3.0 0.00 0.00 0.00 79 1014.0
20240526210005 74 283 2.0 3.0 0.00 0.00 0.00 78 1013.9
20240526205006 75 269 1.0 3.0 0.00 0.00 0.00 77 1013.9
20240526204508 75 179 0.0 2.0 0.00 0.00 0.00 76 1013.9
20240526203957 75 179 1.0 4.0 0.00 0.00 0.00 76 1014.0
20240526203502 75 241 2.0 6.0 0.00 0.00 0.00 73 1014.0
20240526203007 76 236 1.0 7.0 0.00 0.00 0.00 74 1014.0
20240526202505 76 271 2.0 7.0 0.00 0.00 0.00 74 1013.9
20240526202019 76 167 0.0 4.0 0.00 0.00 0.00 72 1013.8
20240526201500 76 189 1.0 4.0 0.00 0.00 0.00 73 1013.9
20240526200513 76 176 1.0 3.0 0.00 0.00 0.00 71 1014.0
20240526195958 76 178 1.0 3.0 0.00 0.00 0.00 70 1014.0
20240526195520 77 171 0.0 4.0 0.00 0.00 0.00 71 1013.9
20240526195003 77 204 2.0 4.0 0.00 0.00 0.00 71 1013.9
20240526194512 77 223 2.0 4.0 0.00 0.00 0.00 72 1014.0
20240526194045 77 188 0.0 4.0 0.00 0.00 0.00 70 1013.9
20240526193007 78 263 2.0 6.0 0.00 0.00 0.00 72 1013.9
20240526192503 77 256 3.0 4.0 0.00 0.00 0.00 72 1013.7
20240526191959 77 182 1.0 7.0 0.00 0.00 0.00 70 1013.7
20240526190957 78 252 3.0 4.0 0.00 0.00 0.00 70 1013.7
20240526190503 78 242 1.0 7.0 0.00 0.00 0.00 70 1013.8
20240526190002 78 215 3.0 7.0 0.00 0.00 0.00 70 1013.8
20240526185503 78 237 3.0 5.0 0.00 0.00 0.00 71 1013.9
20240526185016 78 248 2.0 5.0 0.00 0.00 0.00 69 1013.9
20240526184508 78 334 1.0 3.0 0.00 0.00 0.00 71 1013.9
20240526183956 78 196 2.0 3.0 0.00 0.00 0.00 72 1013.9
20240526183519 78 138 2.0 4.0 0.00 0.00 0.00 71 1013.9
20240526183004 78 276 1.0 7.0 0.00 0.00 0.00 68 1014.1
20240526182504 78 234 4.0 7.0 0.00 0.00 0.00 70 1014.0
20240526182001 78 255 5.0 5.0 0.00 0.00 0.00 71 1014.1
20240526181504 78 229 3.0 4.0 0.00 0.00 0.00 72 1014.2
20240526180522 79 166 1.0 5.0 0.00 0.00 0.00 69 1014.2
20240526180006 79 314 2.0 3.0 0.00 0.00 0.00 71 1014.2
20240526175523 79 217 1.0 3.0 0.00 0.00 0.00 73 1014.2
20240526174957 78 259 0.0 5.0 0.00 0.00 0.00 71 1014.3
20240526174503 77 253 3.0 5.0 0.00 0.00 0.00 71 1014.3
20240526173504 77 229 2.0 3.0 0.00 0.00 0.00 71 1014.4
20240526173030 77 184 1.0 3.0 0.00 0.00 0.00 67 1014.6
20240526172001 78 211 2.0 6.0 0.00 0.00 0.00 69 1014.7
20240526170507 77 166 0.0 6.0 0.00 0.00 0.00 67 1014.5
20240526165459 78 251 1.0 4.0 0.00 0.00 0.00 75 1014.5
20240526165011 77 246 3.0 4.0 0.00 0.00 0.00 73 1014.4
20240526164001 77 213 1.0 4.0 0.00 0.00 0.00 70 1014.5
20240526162958 78 163 1.0 4.0 0.00 0.00 0.00 72 1014.5
20240526162018 77 182 1.0 3.0 0.00 0.00 0.00 79 1014.5
20240526161003 77 236 2.0 4.0 0.00 0.00 0.00 76 1014.5
20240526160500 77 264 3.0 5.0 0.00 0.00 0.00 78 1014.5
20240526160006 77 275 0.0 5.0 0.00 0.00 0.00 76 1014.4
20240526155508 76 220 0.0 4.0 0.00 0.00 0.00 76 1014.4
20240526155009 76 261 1.0 4.0 0.00 0.00 0.00 77 1014.4
20240526154457 76 263 0.0 4.0 0.00 0.00 0.00 74 1014.5
20240526154001 76 273 2.0 3.0 0.00 0.00 0.00 78 1014.5
20240526153003 76 298 0.0 3.0 0.00 0.00 0.00 80 1014.6
20240526152509 75 244 0.0 3.0 0.00 0.00 0.00 78 1014.5
20240526151956 74 199 1.0 3.0 0.00 0.00 0.00 81 1014.5
20240526151456 74 203 0.0 3.0 0.00 0.00 0.00 81 1014.6
20240526150956 73 249 2.0 5.0 0.00 0.00 0.00 79 1014.7
20240526145957 74 213 0.0 5.0 0.00 0.00 0.00 81 1014.4
20240526145455 73 201 0.0 5.0 0.00 0.00 0.00 80 1014.4
20240526144956 73 21 0.0 4.0 0.00 0.00 0.00 81 1014.4
20240526144455 73 192 1.0 4.0 0.00 0.00 0.00 81 1014.4
20240526143956 73 77 0.0 4.0 0.00 0.00 0.00 82 1014.4
20240526143456 73 78 0.0 4.0 0.00 0.00 0.00 83 1014.6
20240526142957 72 269 1.0 2.0 0.00 0.00 0.00 81 1014.6
20240526142457 73 281 0.0 3.0 0.00 0.00 0.00 80 1014.5
20240526141956 73 337 0.0 2.0 0.00 0.00 0.00 79 1014.4
20240526141456 73 332 0.0 3.0 0.00 0.00 0.00 82 1014.3
20240526140956 72 36 1.0 3.0 0.00 0.00 0.00 83 1014.2
20240526135457 72 242 0.0 3.0 0.00 0.00 0.00 83 1014.0
20240526134957 71 245 0.0 3.0 0.00 0.00 0.00 82 1014.1
20240526134456 71 67 2.0 3.0 0.00 0.00 0.00 82 1014.2
20240526133957 70 76 0.0 0.0 0.00 0.00 0.00 82 1014.1
20240526132957 69 76 0.0 0.0 0.00 0.00 0.00 85 1014.2
20240526132457 69 76 0.0 0.0 0.00 0.00 0.00 85 1014.2
20240526131957 69 76 0.0 0.0 0.00 0.00 0.00 84 1014.0
20240526130957 69 76 0.0 0.0 0.00 0.00 0.00 85 1014.1
20240526130457 68 76 0.0 0.0 0.00 0.00 0.00 85 1014.1
20240526125456 68 68 0.0 3.0 0.00 0.00 0.00 86 1014.2
20240526124956 68 67 1.0 3.0 0.00 0.00 0.00 87 1014.2
20240526123956 66 61 0.0 0.0 0.00 0.00 0.00 89 1014.2
20240526123456 65 61 0.0 0.0 0.00 0.00 0.00 89 1014.2
20240526122956 64 61 0.0 0.0 0.00 0.00 0.00 89 1014.2
20240526122456 64 61 0.0 0.0 0.00 0.00 0.00 90 1014.2
20240526121956 64 61 0.0 0.0 0.00 0.00 0.00 91 1014.1
20240526121457 63 61 0.0 0.0 0.00 0.00 0.00 91 1014.1
20240526120956 62 61 0.0 0.0 0.00 0.00 0.00 91 1014.1
20240526120456 62 61 0.0 0.0 0.00 0.00 0.00 91 1014.1
20240526115959 62 61 0.0 0.0 0.00 0.00 0.00 92 1014.2
20240526115457 61 61 0.0 0.0 0.00 0.00 0.00 92 1014.0
20240526114957 61 61 0.0 0.0 0.00 0.00 0.00 92 1014.1
20240526114457 61 61 0.0 0.0 0.00 0.00 0.00 92 1014.0
20240526113458 61 61 0.0 0.0 0.00 0.00 0.00 93 1014.0
20240526112958 61 61 0.0 0.0 0.00 0.00 0.00 93 1014.0
20240526112457 60 61 0.0 0.0 0.00 0.00 0.00 93 1013.9
20240526112015 60 61 0.0 0.0 0.00 0.00 0.00 93 1013.9
20240526111459 60 61 0.0 0.0 0.00 0.00 0.00 93 1013.8
20240526111001 60 61 0.0 0.0 0.00 0.00 0.00 93 1013.8
20240526110511 60 61 0.0 0.0 0.00 0.00 0.00 93 1013.7
20240526110002 59 61 0.0 0.0 0.00 0.00 0.00 93 1013.7
20240526105001 59 61 0.0 0.0 0.00 0.00 0.00 93 1013.5
20240526104456 59 61 0.0 2.0 0.00 0.00 0.00 93 1013.7
20240526103955 59 61 0.0 2.0 0.00 0.00 0.00 93 1013.7
20240526103456 59 61 0.0 3.0 0.00 0.00 0.00 93 1013.5
20240526102957 59 61 2.0 3.0 0.00 0.00 0.00 93 1013.6
20240526102458 59 216 0.0 0.0 0.00 0.00 0.00 93 1013.6
20240526102013 59 216 0.0 0.0 0.00 0.00 0.00 93 1013.5
20240526101457 59 216 0.0 0.0 0.00 0.00 0.00 93 1013.5
20240526100539 59 216 0.0 0.0 0.00 0.00 0.00 92 1013.4
20240526095503 59 216 0.0 0.0 0.00 0.00 0.00 92 1013.3
20240526095004 59 216 0.0 0.0 0.00 0.00 0.00 92 1013.2
20240526094459 59 216 0.0 0.0 0.00 0.00 0.00 92 1013.1
20240526094028 59 216 0.0 0.0 0.00 0.00 0.00 92 1013.0
20240526093456 59 216 0.0 0.0 0.00 0.00 0.00 92 1012.9
20240526092955 59 216 0.0 0.0 0.00 0.00 0.00 92 1012.9
20240526092503 59 216 0.0 0.0 0.00 0.00 0.00 92 1012.9
20240526092012 59 216 0.0 0.0 0.00 0.00 0.00 92 1012.8
20240526091014 59 216 0.0 0.0 0.00 0.00 0.00 92 1012.6
20240526090521 59 216 0.0 0.0 0.00 0.00 0.00 92 1012.8
20240526085017 59 216 0.0 0.0 0.00 0.00 0.00 91 1012.7
20240526084456 59 216 0.0 0.0 0.00 0.00 0.00 91 1012.6
20240526084003 59 216 0.0 0.0 0.00 0.00 0.00 91 1012.6
20240526083003 59 216 0.0 0.0 0.00 0.00 0.00 91 1012.6
20240526082456 59 216 0.0 0.0 0.00 0.00 0.00 91 1012.7
20240526082014 59 216 0.0 0.0 0.00 0.00 0.00 91 1012.8
20240526081459 59 216 0.0 0.0 0.00 0.00 0.00 90 1012.8
20240526081000 59 216 0.0 0.0 0.00 0.00 0.00 90 1012.8
20240526080524 59 216 0.0 0.0 0.00 0.00 0.00 90 1013.0
20240526075958 59 216 0.0 0.0 0.00 0.00 0.00 90 1012.9
20240526075457 59 216 0.0 0.0 0.00 0.00 0.00 90 1012.8
20240526075019 59 216 0.0 0.0 0.00 0.00 0.00 90 1012.8
20240526074505 59 216 0.0 0.0 0.00 0.00 0.00 90 1012.9
20240526073956 59 216 0.0 0.0 0.00 0.00 0.00 90 1012.8
20240526073455 59 216 0.0 0.0 0.00 0.00 0.00 90 1012.7
20240526072503 59 216 0.0 0.0 0.00 0.00 0.00 90 1012.7
20240526071506 58 216 0.0 0.0 0.00 0.00 0.00 90 1012.6
20240526071001 59 216 0.0 0.0 0.00 0.00 0.00 90 1012.6
20240526070459 59 216 0.0 0.0 0.00 0.00 0.00 90 1012.7
20240526070004 59 216 0.0 0.0 0.00 0.00 0.00 89 1012.6
20240526065510 59 216 0.0 0.0 0.00 0.00 0.00 89 1012.6
20240526064507 59 216 0.0 0.0 0.00 0.00 0.00 89 1012.6
20240526064002 59 216 0.0 0.0 0.00 0.00 0.00 89 1012.5
20240526063500 59 216 0.0 0.0 0.00 0.00 0.00 89 1012.5
20240526063001 58 216 0.0 0.0 0.00 0.00 0.00 89 1012.4
20240526062503 58 216 0.0 0.0 0.00 0.00 0.00 89 1012.4
20240526062018 58 216 0.0 0.0 0.00 0.00 0.00 89 1012.4
20240526061008 58 216 0.0 0.0 0.00 0.00 0.00 89 1012.4
20240526060509 58 216 0.0 0.0 0.00 0.00 0.00 89 1012.4
20240526055955 59 216 0.0 0.0 0.00 0.00 0.00 89 1012.3
20240526055459 58 216 0.0 0.0 0.00 0.00 0.00 89 1012.3
20240526055102 58 216 0.0 0.0 0.00 0.00 0.00 89 1012.4